This demonstration page uses our WeatherBlox Daily Observations layout. Learn more.

Left ArrowRight Arrow

39.51506, -84.39828

Hourly Observations for November 5, 2020

Temp ( °F °C ) Dew Point ( °F °C ) Humidity (%) Winds ( mph kmh ) Pressure ( in mb ) Visibility ( mi km ) Precip ( " mm )
12:15 am 00:15 Clear 41 5.1 40 4.4 95 95 Calm 30.32 1027 10 16.0934 0 0
12:35 am 00:35 Clear 44 6.4 43 5.9 97 97 Calm 30.32 1027 10 16.0934 0 0
12:55 am 00:55 Clear 41 5.1 41 4.8 98 98 Calm 30.32 1027 10 16.0934 0 0
1:15 am 01:15 Clear 43 6.1 42 5.5 96 96 Calm 30.32 1027 10 16.0934 0 0
1:35 am 01:35 Clear 44 6.4 42 5.7 95 95 Calm 30.32 1027 10 16.0934 0 0
1:55 am 01:55 Clear 41 5 40 4.3 95 95 Calm 30.32 1027 10 16.0934 0 0
2:15 am 02:15 Clear 41 4.8 40 4.3 97 97 Calm 30.31 1026 10 16.0934 0 0
2:35 am 02:35 Clear 39 4 39 4 100 100 Calm 30.32 1027 10 16.0934 0 0
2:55 am 02:55 Clear 41 5 N/A N/A Calm 30.32 1027 10 16.0934 0 0
3:15 am 03:15 Clear 42 5.4 41 5.2 99 99 Calm 30.32 1027 10 16.0934 0 0
3:35 am 03:35 Clear 41 4.9 40 4.7 99 99 Calm 30.32 1027 10 16.0934 0 0
3:55 am 03:55 Clear 39 4 39 4 100 100 Calm 30.32 1027 10 16.0934 0 0
4:15 am 04:15 Clear 39 4 N/A N/A Calm 30.33 1027 10 16.0934 0 0
4:35 am 04:35 Clear 39 4 N/A N/A Calm 30.33 1027 10 16.0934 0 0
4:55 am 04:55 Clear with Mist and Fog 39 4 N/A N/A Calm 30.33 1027 3.5 5.63269 0 0
5:15 am 05:15 Clear 39 4 N/A N/A Calm 30.34 1028 10 16.0934 0 0
5:35 am 05:35 Hazy 37 3 N/A N/A Calm 30.35 1028 7 11.26538 0 0
5:55 am 05:55 Mostly Cloudy with Mist and Fog 37 3 N/A N/A Calm 30.35 1028 1 1.60934 0 0
6:15 am 06:15 Mostly Cloudy with Mist and Fog 37 3 N/A N/A Calm 30.35 1028 0.75 1.207005 0 0
6:35 am 06:35 Mostly Cloudy with Fog 37 3 N/A N/A Calm 30.35 1028 0.5 0.80467 0 0
6:55 am 06:55 Mostly Cloudy with Mist and Fog 37 3 N/A N/A Calm 30.35 1028 0.75 1.207005 0 0
7:15 am 07:15 Hazy 37 3 N/A N/A Calm 30.35 1028 7 11.26538 0 0
7:35 am 07:35 Sunny 37 3 N/A N/A Calm 30.35 1028 10 16.0934 0 0
7:55 am 07:55 Sunny 37 3 N/A N/A Calm 30.36 1028 7 11.26538 0 0
8:15 am 08:15 Sunny 43 6 N/A N/A Calm 30.35 1028 10 16.0934 0 0
8:35 am 08:35 Sunny 48 8.9 46 7.9 94 94 W 3 6 30.35 1028 10 16.0934 0 0
8:55 am 08:55 Sunny 50 10 45 7.3 83 83 W 5 7 30.35 1028 10 16.0934 0 0
9:15 am 09:15 Sunny 51 10.3 45 7.3 82 82 WSW 5 7 30.35 1028 10 16.0934 0 0
9:35 am 09:35 Sunny 53 11.8 45 7.2 74 74 WSW 5 7 30.33 1027 10 16.0934 0 0
9:55 am 09:55 Sunny 56 13.5 45 7.2 66 66 WSW 7 11 30.33 1027 10 16.0934 0 0
10:15 am 10:15 Sunny 58 14.2 45 7.4 64 64 WSW 8 13 30.33 1027 10 16.0934 0 0
10:35 am 10:35 Sunny 60 15.5 45 7.4 59 59 SW 9 15 30.32 1027 10 16.0934 0 0
10:55 am 10:55 Sunny 62 16.6 45 7.4 55 55 SW 14 22 30.31 1027 10 16.0934 0 0
11:15 am 11:15 Sunny 63 17 45 7.2 53 53 WSW 12 19 30.31 1026 10 16.0934 0 0
11:35 am 11:35 Sunny 62 16.5 45 7 54 54 WSW 15 24 30.3 1026 10 16.0934 0 0
11:55 am 11:55 Sunny 63 17.4 45 7.1 51 51 SW 12 19 30.3 1026 10 16.0934 0 0
12:15 pm 12:15 Sunny 64 17.5 45 7.1 51 51 SW 9 15 30.29 1026 10 16.0934 0 0
12:35 pm 12:35 Sunny 65 18.1 46 7.7 51 51 SW 8 13 30.29 1026 10 16.0934 0 0
12:55 pm 12:55 Sunny 65 18.3 45 7.1 48 48 SW 9 15 30.29 1026 10 16.0934 0 0
1:15 pm 13:15 Sunny 65 18.5 44 6.9 47 47 WSW 9 15 30.28 1025 10 16.0934 0 0
1:35 pm 13:35 Sunny 66 18.8 45 7 46 46 SW 8 13 30.28 1025 10 16.0934 0 0
1:55 pm 13:55 Sunny 67 19.3 44 6.9 45 45 SW 9 15 30.27 1025 10 16.0934 0 0
2:15 pm 14:15 Sunny 66 19.1 44 6.7 45 45 WSW 13 20 30.27 1025 10 16.0934 0 0
2:35 pm 14:35 Sunny 66 18.9 44 6.8 45 45 WSW 8 13 30.27 1025 10 16.0934 0 0
2:55 pm 14:55 Sunny 66 18.9 44 6.8 45 45 WSW 13 20 30.26 1025 10 16.0934 0 0
3:15 pm 15:15 Sunny 65 18.5 44 6.9 47 47 WSW 13 20 30.26 1025 10 16.0934 0 0
3:35 pm 15:35 Sunny 65 18.3 44 6.7 47 47 WSW 14 22 30.26 1025 10 16.0934 0 0
3:55 pm 15:55 Sunny 65 18.1 45 7.1 49 49 WSW 9 15 30.26 1025 10 16.0934 0 0
4:15 pm 16:15 Sunny 64 17.7 45 7.2 50 50 SW 6 9 30.26 1025 10 16.0934 0 0
4:35 pm 16:35 Sunny 64 17.7 45 7.2 50 50 SW 9 15 30.25 1024 10 16.0934 0 0
4:55 pm 16:55 Sunny 63 17.3 45 7.2 52 52 SW 8 13 30.25 1024 10 16.0934 0 0
5:15 pm 17:15 Sunny 63 17.3 45 7.2 52 52 SSW 7 11 30.25 1024 10 16.0934 0 0
5:35 pm 17:35 Clear 61 16.1 46 7.5 57 57 SW 3 6 30.25 1025 10 16.0934 0 0
5:55 pm 17:55 Clear 61 16 46 7.5 57 57 SW 7 11 30.26 1025 10 16.0934 0 0
6:15 pm 18:15 Clear 58 14.7 45 7.4 62 62 WSW 3 6 30.28 1025 10 16.0934 0 0
6:35 pm 18:35 Clear 58 14.4 45 7.2 62 62 Calm 30.28 1025 10 16.0934 0 0
6:55 pm 18:55 Clear 55 12.8 45 7.2 69 69 Calm 30.28 1025 10 16.0934 0 0
7:15 pm 19:15 Clear 56 13.4 46 7.6 68 68 SSW 5 7 30.28 1025 10 16.0934 0 0
7:35 pm 19:35 Clear 54 12.1 46 7.8 75 75 W 5 7 30.28 1026 10 16.0934 0 0
7:55 pm 19:55 Clear 52 11.3 46 7.7 79 79 Calm 30.29 1026 10 16.0934 0 0
8:15 pm 20:15 Clear 54 12.2 46 7.7 74 74 Calm 30.28 1026 10 16.0934 0 0
8:35 pm 20:35 Clear 53 11.7 46 7.6 76 76 Calm 30.28 1026 10 16.0934 0 0
8:55 pm 20:55 Clear 50 9.8 46 7.6 86 86 Calm 30.3 1026 10 16.0934 0 0
9:15 pm 21:15 Clear 51 10.6 46 7.9 84 84 SW 5 7 30.3 1026 10 16.0934 0 0
9:35 pm 21:35 Clear 49 9.3 46 7.9 91 91 Calm 30.3 1026 10 16.0934 0 0
9:55 pm 21:55 Clear 49 9.2 46 7.8 91 91 W 5 7 30.3 1026 10 16.0934 0 0
10:15 pm 22:15 Clear 50 10 46 7.6 85 85 WSW 3 6 30.3 1026 10 16.0934 0 0
10:35 pm 22:35 Clear 47 8.2 45 7 92 92 Calm 30.3 1026 10 16.0934 0 0
10:55 pm 22:55 Clear 47 8.1 45 7.1 93 93 Calm 30.3 1026 10 16.0934 0 0
11:15 pm 23:15 Clear 46 7.8 45 7.3 97 97 Calm 30.3 1026 10 16.0934 0 0
11:35 pm 23:35 Clear 46 7.6 45 7.2 97 97 Calm 30.31 1026 10 16.0934 0 0
11:55 pm 23:55 Clear 45 7.1 44 6.9 99 99 Calm 30.31 1026 10 16.0934 0 0

Powered by AerisWeather